Overview Statistics Trail Chart Weather Telemetry Raw packets
 

This is the latest recevied weather packets stored in our database for station/object EA2MKR. If no packets are shown the sender has not sent any weather packets the latest 10 day(s).

<< 1 2 3 4 5 6 7 >>
Time Temp. Humidity Pressure Rain* Wind** Luminosity Snow
1788613787 36.11° C 25% 958.8 hPa 0 mm - - -
1788613487 36.11° C 24% 958.7 hPa 0 mm - - -
1788613187 36.11° C 24% 958.8 hPa 0 mm - - -
1788612973 35.56° C 24% 958.9 hPa 0 mm - - -
1788612586 35.56° C 24% 958.9 hPa 0 mm - - -
1788612373 35.56° C 25% 959 hPa 0 mm - - -
1788611986 35.56° C 27% 959 hPa 0 mm - - -
1788611686 35.56° C 24% 959 hPa 0 mm - - -
1788611387 35° C 25% 959.1 hPa 0 mm - - -
1788611087 35° C 26% 959 hPa 0 mm - - -
1788610787 35° C 25% 959.2 hPa 0 mm - - -
1788610486 35° C 25% 959.3 hPa 0 mm - - -
1788610274 34.44° C 25% 959.4 hPa 0 mm - - -
1788609886 33.89° C 27% 959.5 hPa 0 mm - - -
1788609585 34.44° C 28% 959.4 hPa 0 mm - - -
1788609373 34.44° C 28% 959.5 hPa 0 mm - - -
1788608985 33.89° C 30% 959.5 hPa 0 mm - - -
1788608685 33.33° C 30% 959.6 hPa 0 mm - - -
1788608386 32.78° C 31% 959.6 hPa 0 mm - - -
1788608085 32.22° C 32% 959.7 hPa 0 mm - - -
1788607873 32.22° C 33% 959.8 hPa 0 mm - - -
1788607485 31.67° C 33% 959.9 hPa 0 mm - - -
1788607185 31.67° C 34% 959.9 hPa 0 mm - - -
1788606885 31.67° C 35% 959.9 hPa 0 mm - - -
1788606584 31.11° C 33% 960.1 hPa 0 mm - - -

* Rain latest hour (hover to see other rain measurements)
** Current wind speed in m/s (hover to see current wind gust speed)